Weather History for Kecskemet, Hungary

Change the Weather History Date:

Saturday, March 30, 2013

  Actual Average (LHBP) Record (LHBP)
Temperature  
Mean Temperature 40 °F -  
Max Temperature 46 °F 57 °F 68 °F (2003)
Min Temperature 35 °F 34 °F 28 °F (1998)
Degree Days  
Heating Degree Days 24    
Moisture  
Dew Point 40 °F    
Average Humidity 98    
Maximum Humidity 100    
Minimum Humidity 93    
Precipitation  
Precipitation 0.00 in - - ()
Sea Level Pressure  
Sea Level Pressure 29.68 in    
Wind  
Wind Speed 5 mph ()    
Max Wind Speed 11 mph    
Max Gust Speed -    
Visibility 1.2 miles    
Events Fog , Rain    
Averages and records for this station are not official NWS values.
T = Trace of Precipitation, MM = Missing Value Source: Averaged Metar Reports

Daily Weather History Graph

Daily Weather History Graph

Search for Another Location

Airport:

Trip Planner

Search our weather history database for the weather conditions in past years. The results will help you decide how hot, cold, wet, or windy it might be!

Date:

Astronomy

Mar. 30, 2013 Rise Set
Actual Time 5:24 AM CET 6:07 PM CET
Civil Twilight 4:53 AM CET 6:38 PM CET
Nautical Twilight 4:17 AM CET 7:14 PM CET
Astronomical Twilight 3:39 AM CET 7:53 PM CET
Moon 10:09 PM CET (3/30) 6:51 AM CET (3/30)
Length of Visible Light 13h 44m
Length of Day
12h 43m
Waning Gibbous, 88% of the Moon is Illuminated
Mar 30
Waning Gibbous
Apr 3
Last Quarter
Apr 10
New
Apr 18
First Quarter
Apr 25
Full

Hourly Weather History & Observations

Time (CET) Temp. Windchill Dew Point Humidity Pressure Visibility Wind Dir Wind Speed Gust Speed Precip Events Conditions
12:15 AM 35.6 °F - 35.6 °F 100% 29.74 in 0.7 mi NE 2.2 mph - N/A   Overcast
12:45 AM 35.6 °F - 35.6 °F 100% 29.74 in 0.6 mi NNE 2.2 mph - N/A   Overcast
1:15 AM 35.6 °F 31.8 °F 35.6 °F 100% 29.71 in 0.6 mi NE 4.5 mph - N/A   Overcast
1:40 AM 35.6 °F 31.8 °F 35.6 °F 100% 29.71 in 0.5 mi NE 4.5 mph - N/A Fog Fog
1:45 AM 35.6 °F 31.8 °F 35.6 °F 100% 29.71 in 0.5 mi ENE 4.5 mph - N/A Fog Fog
2:01 AM 35.6 °F - 35.6 °F 100% 29.71 in 0.5 mi ENE 2.2 mph - N/A Fog , Rain Light Rain
2:15 AM 35.6 °F 31.8 °F 35.6 °F 100% 29.71 in 0.5 mi NE 4.5 mph - N/A Fog , Rain Light Rain
2:45 AM 35.6 °F 31.8 °F 35.6 °F 100% 29.71 in 0.4 mi NE 4.5 mph - N/A Fog Fog
3:15 AM 35.6 °F 31.8 °F 33.8 °F 93% 29.71 in 0.2 mi ENE 4.5 mph - N/A Fog Fog
3:22 AM 35.6 °F 31.8 °F 33.8 °F 93% 29.71 in 0.2 mi NE 4.5 mph - N/A Fog Fog
3:45 AM 35.6 °F 31.8 °F 33.8 °F 93% 29.71 in 0.2 mi NE 4.5 mph - N/A Fog Fog
4:15 AM 35.6 °F 31.8 °F 33.8 °F 93% 29.71 in 0.2 mi NNE 4.5 mph - N/A Fog , Rain Light Rain
5:00 AM - - - N/A% - 1.9 mi Variable 4.5 mph - N/A   Overcast
5:15 AM 35.6 °F 30.0 °F 33.8 °F 93% 29.71 in 0.3 mi North 6.7 mph - N/A Fog , Rain Light Rain
5:29 AM 35.6 °F - 33.8 °F 93% 29.71 in 0.5 mi North 2.2 mph - N/A Fog , Rain Light Rain
5:45 AM - - - N/A% - 0.9 mi Variable 4.5 mph - N/A   Overcast
6:15 AM 35.6 °F - 35.6 °F 100% 29.71 in 0.5 mi NNE 2.2 mph - N/A Fog , Rain Light Rain
6:45 AM 35.6 °F 31.8 °F 35.6 °F 100% 29.71 in 0.5 mi NE 4.5 mph - N/A Fog , Rain Light Rain
7:15 AM 35.6 °F 31.8 °F 35.6 °F 100% 29.71 in 0.5 mi NE 4.5 mph - N/A Fog , Rain Light Rain
7:45 AM 35.6 °F 31.8 °F 35.6 °F 100% 29.71 in 0.6 mi NE 4.5 mph - N/A Rain Light Rain
8:15 AM 35.6 °F 30.0 °F 35.6 °F 100% 29.71 in 0.6 mi NNE 6.7 mph - N/A Rain Light Rain
8:45 AM - - - N/A% - 0.9 mi ENE 4.5 mph - N/A   Mostly Cloudy
9:15 AM 37.4 °F 33.9 °F 37.4 °F 100% 29.71 in 0.6 mi NE 4.5 mph - N/A   Overcast
9:45 AM 37.4 °F 33.9 °F 37.4 °F 100% 29.71 in 0.6 mi NNE 4.5 mph - N/A Rain Light Rain
10:01 AM 39.2 °F 34.4 °F 39.2 °F 100% 29.71 in 0.5 mi NNE 6.7 mph - N/A Fog , Rain Light Rain
10:15 AM - - - N/A% - 0.5 mi NE 4.5 mph - N/A Fog , Rain Light Rain
10:45 AM 39.2 °F 36.0 °F 39.2 °F 100% 29.71 in 0.7 mi NNE 4.5 mph - N/A   Overcast
10:57 AM 41.0 °F - 41.0 °F 100% 29.71 in 0.9 mi NNE 2.2 mph - N/A   Overcast
11:15 AM 41.0 °F 38.1 °F 41.0 °F 100% 29.71 in 0.9 mi NNE 4.5 mph - N/A   Overcast
11:45 AM - - - N/A% - 1.9 mi ENE 6.7 mph - N/A   Overcast
12:15 PM 41.0 °F 38.1 °F 41.0 °F 100% 29.71 in 1.2 mi NNE 4.5 mph - N/A   Overcast
12:45 PM 42.8 °F 40.2 °F 41.0 °F 93% 29.71 in 1.6 mi NNE 4.5 mph - N/A   Overcast
1:02 PM 42.8 °F 38.7 °F 41.0 °F 93% 29.71 in 1.9 mi NNE 6.7 mph - N/A   Overcast
1:15 PM 42.8 °F 38.7 °F 41.0 °F 93% 29.71 in 1.9 mi NE 6.7 mph - N/A   Overcast
1:45 PM 44.6 °F 40.8 °F 42.8 °F 93% 29.68 in 1.9 mi NE 6.7 mph - N/A   Overcast
2:15 PM 44.6 °F 42.3 °F 42.8 °F 93% 29.71 in 1.9 mi ENE 4.5 mph - N/A   Overcast
2:45 PM - - - N/A% - 3.7 mi ENE 8.9 mph - N/A   Overcast
3:15 PM 44.6 °F 40.8 °F 44.6 °F 100% 29.68 in 1.9 mi NNE 6.7 mph - N/A   Overcast
3:45 PM 46.4 °F 43.0 °F 44.6 °F 93% 29.65 in 1.9 mi NE 6.7 mph - N/A   Overcast
3:50 PM - - - N/A% - 1.9 mi ENE 6.7 mph - N/A   Overcast
4:15 PM 46.4 °F 42.0 °F 44.6 °F 93% 29.65 in 1.9 mi ENE 8.9 mph - N/A   Overcast
4:45 PM 46.4 °F 42.0 °F 44.6 °F 93% 29.62 in 1.9 mi ENE 8.9 mph - N/A   Overcast
5:15 PM 46.4 °F 42.0 °F 44.6 °F 93% 29.62 in 1.9 mi ENE 8.9 mph - N/A   Overcast
5:45 PM - - - N/A% - 3.7 mi ENE 8.9 mph - N/A   Overcast
6:15 PM 46.4 °F 44.4 °F 44.6 °F 93% 29.62 in 1.9 mi ENE 4.5 mph - N/A Rain Light Rain
6:45 PM 46.4 °F 44.4 °F 46.4 °F 100% 29.62 in 1.9 mi ENE 4.5 mph - N/A Rain Light Rain
7:15 PM 44.6 °F 39.8 °F 44.6 °F 100% 29.62 in 2.5 mi ENE 8.9 mph - N/A Rain Light Rain
7:45 PM 46.4 °F 43.0 °F 46.4 °F 100% 29.62 in 1.9 mi ENE 6.7 mph - N/A Rain Light Rain
8:15 PM 46.4 °F 41.2 °F 46.4 °F 100% 29.59 in 1.2 mi ENE 11.2 mph - N/A Rain Light Rain
8:45 PM - - - N/A% - 3.1 mi ENE 11.2 mph - N/A   Mostly Cloudy
9:15 PM 46.4 °F 42.0 °F 46.4 °F 100% 29.59 in 1.2 mi ENE 8.9 mph - N/A Rain Rain
9:45 PM 46.4 °F 42.0 °F 46.4 °F 100% 29.59 in 1.2 mi NE 8.9 mph - N/A Rain Rain
10:15 PM 44.6 °F 40.8 °F 44.6 °F 100% 29.56 in 1.2 mi ENE 6.7 mph - N/A Rain Rain
10:45 PM 46.4 °F 43.0 °F 46.4 °F 100% 29.56 in 1.2 mi NE 6.7 mph - N/A Rain Rain
11:15 PM 46.4 °F 42.0 °F 46.4 °F 100% 29.53 in 1.2 mi NE 8.9 mph - N/A Rain Rain
11:45 PM - - - N/A% - 3.1 mi ENE 8.9 mph - N/A   Overcast